Location: Bern�tre
(50.1974°N, 2.0915°E)
Time: 09:33:54
(UTC+00:00)

CZ-2C R/B - Pass Details

Date: 18 September 2020
Orbit: 640 x 704 km, 98.4° (Epoch: 27 October)

Event Time Altitude Azimuth Distance (km) Brightness Sun altitude
Rises 19:58:32 0° 18° (NNE) 2,963 7.2 -19.4°
Reaches altitude 10° 20:00:48 10° 23° (NNE) 2,051 6.3 -19.7°
Maximum altitude 20:05:09 52° 100° (E) 811 3.7 -20.3°
Enters shadow 20:05:30 50° 118° (ESE) 825 3.7 -20.3°
